Вернуться в каталог

STARLINK-30149

АктивенСвязьVLEO
NORAD 57516·PAYLOAD·🇺🇸 United States

Запущен Aug 7, 2023 с Cape Canaveral Space Force Station

Loading…

Ближайшие Пролёты (ближайшие 24 часа)

TLE

СвежийSource: CelesTrak SupGP

Эпоха: Sep 15, 2026, 01:41 UTC

1 57516C 23113X   26258.07062500 -.00091186  00000+0 -33028-2 0  2589
2 57516  43.0041  26.4134 0002195 271.8222 321.7486 15.27621491    19

Отслеживайте STARLINK-30149 в реальном времени с AllMySat

Download on the App Store